| time (UTC) | temp C | wind direction | speed KPH | gust KPH | rain 1hr cm | rain 24hr cm | rain mn cm | humidity % | barometer mb |
| 20260504081516 | 14 | 203 | 3.2 | 4.8 | 0.00 | 0.00 | 0.00 | 33 | 996.5 |
| 20260504081015 | 14 | 203 | 1.6 | 8.0 | 0.00 | 0.00 | 0.00 | 33 | 996.6 |
| 20260504080515 | 14 | 203 | 1.6 | 3.2 | 0.00 | 0.00 | 0.00 | 35 | 996.6 |
| 20260504050538 | 13 | 203 | 1.6 | 3.2 | 0.00 | 0.00 | 0.00 | 37 | 1000.1 |
| 20260504050016 | 13 | 0.0 | 3.2 | 0.00 | 0.00 | 0.00 | 37 | 1000.2 | |
| 20260504045518 | 13 | 203 | 1.6 | 1.6 | 0.00 | 0.00 | 0.00 | 36 | 1000.3 |
| 20260504045017 | 13 | 180 | 1.6 | 1.6 | 0.00 | 0.00 | 0.00 | 37 | 1000.4 |
| 20260504044517 | 13 | 0.0 | 3.2 | 0.00 | 0.00 | 0.00 | 37 | 1000.4 | |
| 20260504044037 | 13 | 0.0 | 3.2 | 0.00 | 0.00 | 0.00 | 36 | 1000.5 | |
| 20260504043537 | 13 | 0.0 | 3.2 | 0.00 | 0.00 | 0.00 | 36 | 1000.6 | |
| 20260504043016 | 13 | 248 | 1.6 | 1.6 | 0.00 | 0.00 | 0.00 | 37 | 1000.7 |
| 20260504042537 | 13 | 248 | 1.6 | 1.6 | 0.00 | 0.00 | 0.00 | 38 | 1000.8 |
| 20260504042017 | 13 | 0.0 | 3.2 | 0.00 | 0.00 | 0.00 | 39 | 1000.9 | |
| 20260504041518 | 13 | 0.0 | 1.6 | 0.00 | 0.00 | 0.00 | 38 | 1001.0 | |
| 20260504041037 | 13 | 0.0 | 1.6 | 0.00 | 0.00 | 0.00 | 38 | 1001.1 | |
| 20260504040517 | 13 | 0.0 | 59.5 | 0.00 | 0.00 | 0.00 | 37 | 1001.3 | |
| 20260504040017 | 13 | 0.0 | 1.6 | 0.00 | 0.00 | 0.00 | 37 | 1001.3 | |
| 20260504035516 | 13 | 0.0 | 3.2 | 0.00 | 0.00 | 0.00 | 38 | 1001.4 | |
| 20260504035017 | 13 | 0.0 | 1.6 | 0.00 | 0.00 | 0.00 | 38 | 1001.5 | |
| 20260504034516 | 13 | 0.0 | 1.6 | 0.00 | 0.00 | 0.00 | 38 | 1001.6 | |
| 20260504034017 | 13 | 0.0 | 3.2 | 0.00 | 0.00 | 0.00 | 38 | 1001.7 | |
| 20260504033516 | 13 | 0.0 | 3.2 | 0.00 | 0.00 | 0.00 | 39 | 1001.8 | |
| 20260504033016 | 13 | 0.0 | 3.2 | 0.00 | 0.00 | 0.00 | 38 | 1001.8 | |
| 20260504032516 | 13 | 0.0 | 3.2 | 0.00 | 0.00 | 0.00 | 37 | 1002.0 | |
| 20260504032016 | 13 | 0.0 | 1.6 | 0.00 | 0.00 | 0.00 | 36 | 1002.1 | |
| 20260504031517 | 14 | 0.0 | 3.2 | 0.00 | 0.00 | 0.00 | 36 | 1002.2 | |
| 20260504031017 | 14 | 0.0 | 3.2 | 0.00 | 0.00 | 0.00 | 33 | 1002.3 | |
| 20260504030516 | 14 | 0.0 | 1.6 | 0.00 | 0.00 | 0.00 | 33 | 1002.3 | |
| 20260504030018 | 14 | 0.0 | 1.6 | 0.00 | 0.00 | 0.00 | 33 | 1002.3 | |
| 20260504025517 | 15 | 0.0 | 3.2 | 0.00 | 0.00 | 0.00 | 33 | 1002.4 | |
| 20260504025056 | 15 | 0.0 | 0.0 | 0.00 | 0.00 | 0.00 | 33 | 1002.5 | |
| 20260504024516 | 15 | 0.0 | 0.0 | 0.00 | 0.00 | 0.00 | 31 | 1002.5 | |
| 20260504024016 | 15 | 0.0 | 0.0 | 0.00 | 0.00 | 0.00 | 31 | 1002.6 | |
| 20260504023516 | 16 | 0.0 | 0.0 | 0.00 | 0.00 | 0.00 | 29 | 1002.5 | |
| 20260504023016 | 16 | 0.0 | 3.2 | 0.00 | 0.00 | 0.00 | 29 | 1002.6 | |
| 20260504022537 | 16 | 0.0 | 3.2 | 0.00 | 0.00 | 0.00 | 28 | 1002.6 | |
| 20260504022016 | 16 | 0.0 | 3.2 | 0.00 | 0.00 | 0.00 | 27 | 1002.7 | |
| 20260504021517 | 16 | 0.0 | 3.2 | 0.00 | 0.00 | 0.00 | 27 | 1002.7 | |
| 20260504021016 | 16 | 0.0 | 3.2 | 0.00 | 0.00 | 0.00 | 26 | 1002.7 | |
| 20260504020516 | 16 | 0.0 | 1.6 | 0.00 | 0.00 | 0.00 | 26 | 1002.6 | |
| 20260504020016 | 17 | 0.0 | 1.6 | 0.00 | 0.00 | 0.00 | 26 | 1002.6 | |
| 20260504015516 | 17 | 0.0 | 3.2 | 0.00 | 0.00 | 0.00 | 25 | 1002.6 | |
| 20260504015016 | 17 | 0.0 | 3.2 | 0.00 | 0.00 | 0.00 | 25 | 1002.6 | |
| 20260504014536 | 17 | 0.0 | 3.2 | 0.00 | 0.00 | 0.00 | 24 | 1002.7 | |
| 20260504014037 | 17 | 0.0 | 3.2 | 0.00 | 0.00 | 0.00 | 24 | 1002.7 | |
| 20260504013517 | 17 | 0.0 | 3.2 | 0.00 | 0.00 | 0.00 | 23 | 1002.7 | |
| 20260504013036 | 18 | 0.0 | 1.6 | 0.00 | 0.00 | 0.00 | 23 | 1002.6 | |
| 20260504012537 | 18 | 0.0 | 3.2 | 0.00 | 0.00 | 0.00 | 22 | 1002.6 | |
| 20260504012016 | 18 | 0.0 | 3.2 | 0.00 | 0.00 | 0.00 | 22 | 1002.7 | |
| 20260504011516 | 18 | 0.0 | 3.2 | 0.00 | 0.00 | 0.00 | 21 | 1002.7 | |
| 20260504011016 | 18 | 0.0 | 3.2 | 0.00 | 0.00 | 0.00 | 22 | 1002.7 | |
| 20260504010516 | 19 | 248 | 1.6 | 3.2 | 0.00 | 0.00 | 0.00 | 21 | 1002.7 |
| 20260504010016 | 19 | 270 | 1.6 | 4.8 | 0.00 | 0.00 | 0.00 | 21 | 1002.7 |
| 20260504005538 | 19 | 248 | 1.6 | 4.8 | 0.00 | 0.00 | 0.00 | 20 | 1002.8 |
| 20260504005016 | 19 | 248 | 1.6 | 4.8 | 0.00 | 0.00 | 0.00 | 19 | 1002.8 |
| 20260504004537 | 20 | 248 | 1.6 | 3.2 | 0.00 | 0.00 | 0.00 | 19 | 1002.9 |
| 20260504004016 | 20 | 248 | 1.6 | 6.4 | 0.00 | 0.00 | 0.00 | 19 | 1002.9 |
| 20260504003516 | 20 | 293 | 1.6 | 6.4 | 0.00 | 0.00 | 0.00 | 18 | 1002.9 |
| 20260504003016 | 20 | 270 | 1.6 | 4.8 | 0.00 | 0.00 | 0.00 | 19 | 1002.9 |
| 20260504002516 | 20 | 293 | 1.6 | 6.4 | 0.00 | 0.00 | 0.00 | 18 | 1002.9 |
| 20260504002017 | 20 | 225 | 3.2 | 9.7 | 0.00 | 0.00 | 0.00 | 18 | 1003.0 |
| 20260504001516 | 20 | 270 | 3.2 | 9.7 | 0.00 | 0.00 | 0.00 | 18 | 1003.0 |
| 20260504001017 | 20 | 293 | 1.6 | 8.0 | 0.00 | 0.00 | 0.00 | 19 | 1003.0 |
| 20260504000515 | 20 | 293 | 3.2 | 6.4 | 0.00 | 0.00 | 0.00 | 18 | 1003.1 |
| 20260504000016 | 21 | 315 | 1.6 | 9.7 | 0.00 | 0.00 | 0.00 | 18 | 1003.1 |
| 20260503235556 | 21 | 248 | 1.6 | 8.0 | 0.00 | 0.00 | 0.00 | 17 | 1003.2 |
| 20260503235017 | 21 | 293 | 3.2 | 6.4 | 0.00 | 0.00 | 0.00 | 17 | 1003.1 |
| 20260503234515 | 21 | 225 | 1.6 | 9.7 | 0.00 | 0.00 | 0.00 | 17 | 1003.2 |
| 20260503234016 | 21 | 225 | 3.2 | 12.9 | 0.00 | 0.00 | 0.00 | 17 | 1003.2 |
| 20260503233516 | 22 | 225 | 3.2 | 9.7 | 0.00 | 0.00 | 0.00 | 16 | 1003.3 |
| 20260503233016 | 22 | 248 | 3.2 | 11.3 | 0.00 | 0.00 | 0.00 | 16 | 1003.4 |
| 20260503232516 | 22 | 270 | 4.8 | 11.3 | 0.00 | 0.00 | 0.00 | 16 | 1003.5 |
| 20260503232037 | 22 | 315 | 3.2 | 8.0 | 0.00 | 0.00 | 0.00 | 15 | 1003.5 |
| 20260503231515 | 22 | 248 | 4.8 | 14.5 | 0.00 | 0.00 | 0.00 | 14 | 1003.5 |
| 20260503231016 | 22 | 315 | 1.6 | 8.0 | 0.00 | 0.00 | 0.00 | 15 | 1003.6 |
| 20260503230516 | 22 | 270 | 4.8 | 11.3 | 0.00 | 0.00 | 0.00 | 15 | 1003.6 |
| 20260503230036 | 22 | 225 | 3.2 | 12.9 | 0.00 | 0.00 | 0.00 | 15 | 1003.6 |
| 20260503225516 | 22 | 225 | 4.8 | 12.9 | 0.00 | 0.00 | 0.00 | 15 | 1003.7 |
| 20260503225015 | 23 | 225 | 3.2 | 16.1 | 0.00 | 0.00 | 0.00 | 16 | 1003.9 |
| 20260503224515 | 23 | 293 | 1.6 | 6.4 | 0.00 | 0.00 | 0.00 | 14 | 1003.9 |
| 20260503224015 | 23 | 338 | 1.6 | 6.4 | 0.00 | 0.00 | 0.00 | 15 | 1003.9 |
| 20260503223516 | 23 | 315 | 3.2 | 12.9 | 0.00 | 0.00 | 0.00 | 15 | 1003.9 |
| 20260503223036 | 23 | 270 | 3.2 | 8.0 | 0.00 | 0.00 | 0.00 | 14 | 1003.9 |
| 20260503222516 | 23 | 248 | 4.8 | 12.9 | 0.00 | 0.00 | 0.00 | 14 | 1004.0 |
| 20260503222016 | 23 | 248 | 4.8 | 12.9 | 0.00 | 0.00 | 0.00 | 14 | 1004.0 |
| 20260503221515 | 23 | 315 | 3.2 | 11.3 | 0.00 | 0.00 | 0.00 | 14 | 1004.0 |
| 20260503221015 | 23 | 0 | 1.6 | 4.8 | 0.00 | 0.00 | 0.00 | 14 | 1004.0 |
| 20260503220516 | 23 | 338 | 3.2 | 8.0 | 0.00 | 0.00 | 0.00 | 14 | 1004.1 |
| 20260503220015 | 23 | 338 | 1.6 | 4.8 | 0.00 | 0.00 | 0.00 | 14 | 1004.1 |
| 20260503215515 | 23 | 315 | 3.2 | 12.9 | 0.00 | 0.00 | 0.00 | 15 | 1004.1 |
| 20260503215015 | 22 | 248 | 3.2 | 11.3 | 0.00 | 0.00 | 0.00 | 15 | 1004.1 |
| 20260503214515 | 23 | 270 | 4.8 | 8.0 | 0.00 | 0.00 | 0.00 | 14 | 1004.2 |
| 20260503214038 | 22 | 338 | 1.6 | 8.0 | 0.00 | 0.00 | 0.00 | 15 | 1004.3 |
| 20260503213558 | 22 | 315 | 1.6 | 6.4 | 0.00 | 0.00 | 0.00 | 14 | 1004.3 |
| 20260503213017 | 22 | 293 | 3.2 | 8.0 | 0.00 | 0.00 | 0.00 | 14 | 1004.4 |
| 20260503212518 | 22 | 338 | 4.8 | 11.3 | 0.00 | 0.00 | 0.00 | 14 | 1004.5 |
| 20260503212017 | 22 | 338 | 1.6 | 6.4 | 0.00 | 0.00 | 0.00 | 16 | 1004.5 |
| 20260503211538 | 22 | 248 | 3.2 | 12.9 | 0.00 | 0.00 | 0.00 | 17 | 1004.6 |
| 20260503211018 | 22 | 315 | 3.2 | 11.3 | 0.00 | 0.00 | 0.00 | 17 | 1004.6 |
| 20260503210517 | 22 | 315 | 3.2 | 11.3 | 0.00 | 0.00 | 0.00 | 15 | 1004.6 |
| 20260503210017 | 22 | 315 | 1.6 | 6.4 | 0.00 | 0.00 | 0.00 | 15 | 1004.7 |
| 20260503205518 | 22 | 203 | 3.2 | 9.7 | 0.00 | 0.00 | 0.00 | 15 | 1004.7 |
| 20260503205017 | 22 | 315 | 3.2 | 8.0 | 0.00 | 0.00 | 0.00 | 16 | 1004.9 |
| 20260503204537 | 22 | 293 | 4.8 | 9.7 | 0.00 | 0.00 | 0.00 | 15 | 1004.9 |
| 20260503204017 | 22 | 248 | 3.2 | 11.3 | 0.00 | 0.00 | 0.00 | 15 | 1005.0 |
| 20260503203517 | 22 | 315 | 3.2 | 9.7 | 0.00 | 0.00 | 0.00 | 16 | 1005.1 |
| 20260503203017 | 22 | 315 | 1.6 | 4.8 | 0.00 | 0.00 | 0.00 | 16 | 1005.0 |
| 20260503202537 | 22 | 315 | 3.2 | 6.4 | 0.00 | 0.00 | 0.00 | 16 | 1005.1 |
| 20260503202017 | 22 | 338 | 3.2 | 6.4 | 0.00 | 0.00 | 0.00 | 16 | 1005.1 |
| 20260503201538 | 22 | 338 | 3.2 | 8.0 | 0.00 | 0.00 | 0.00 | 20 | 1005.2 |
| 20260503201017 | 21 | 270 | 3.2 | 9.7 | 0.00 | 0.00 | 0.00 | 17 | 1005.2 |
| 20260503200517 | 21 | 293 | 4.8 | 12.9 | 0.00 | 0.00 | 0.00 | 15 | 1005.2 |
| 20260503200017 | 21 | 338 | 3.2 | 8.0 | 0.00 | 0.00 | 0.00 | 16 | 1005.4 |
| 20260503195517 | 21 | 315 | 3.2 | 11.3 | 0.00 | 0.00 | 0.00 | 16 | 1005.3 |
| 20260503195022 | 21 | 270 | 4.8 | 12.9 | 0.00 | 0.00 | 0.00 | 15 | 1005.5 |
| 20260503194517 | 21 | 293 | 3.2 | 6.4 | 0.00 | 0.00 | 0.00 | 16 | 1005.4 |
| 20260503194017 | 21 | 338 | 3.2 | 8.0 | 0.00 | 0.00 | 0.00 | 17 | 1005.4 |
| 20260503193517 | 21 | 0 | 3.2 | 8.0 | 0.00 | 0.00 | 0.00 | 15 | 1005.5 |
| 20260503193017 | 21 | 338 | 3.2 | 11.3 | 0.00 | 0.00 | 0.00 | 17 | 1005.5 |
| 20260503192518 | 20 | 338 | 3.2 | 9.7 | 0.00 | 0.00 | 0.00 | 15 | 1005.7 |
| 20260503192017 | 20 | 338 | 3.2 | 11.3 | 0.00 | 0.00 | 0.00 | 16 | 1005.7 |
| 20260503191517 | 20 | 315 | 4.8 | 11.3 | 0.00 | 0.00 | 0.00 | 17 | 1005.8 |
| 20260503191017 | 20 | 338 | 4.8 | 19.3 | 0.00 | 0.00 | 0.00 | 18 | 1005.8 |
| 20260503190517 | 20 | 270 | 6.4 | 17.7 | 0.00 | 0.00 | 0.00 | 18 | 1005.7 |
| 20260503190017 | 20 | 315 | 4.8 | 12.9 | 0.00 | 0.00 | 0.00 | 20 | 1005.7 |
| 20260503185517 | 21 | 315 | 4.8 | 12.9 | 0.00 | 0.00 | 0.00 | 20 | 1005.8 |
| 20260503185017 | 21 | 0 | 3.2 | 9.7 | 0.00 | 0.00 | 0.00 | 21 | 1005.8 |
| 20260503184518 | 21 | 0 | 3.2 | 8.0 | 0.00 | 0.00 | 0.00 | 20 | 1005.7 |
| 20260503184017 | 20 | 315 | 3.2 | 12.9 | 0.00 | 0.00 | 0.00 | 19 | 1005.7 |
| 20260503183517 | 21 | 315 | 4.8 | 11.3 | 0.00 | 0.00 | 0.00 | 19 | 1005.9 |
| 20260503183017 | 21 | 315 | 3.2 | 9.7 | 0.00 | 0.00 | 0.00 | 20 | 1005.8 |
| 20260503182517 | 20 | 0 | 1.6 | 8.0 | 0.00 | 0.00 | 0.00 | 24 | 1005.7 |
| 20260503182017 | 20 | 0 | 4.8 | 9.7 | 0.00 | 0.00 | 0.00 | 21 | 1005.8 |
| 20260503181518 | 20 | 0 | 3.2 | 4.8 | 0.00 | 0.00 | 0.00 | 22 | 1005.8 |
| 20260503181016 | 20 | 0 | 3.2 | 17.7 | 0.00 | 0.00 | 0.00 | 21 | 1006.0 |
| 20260503180536 | 20 | 338 | 3.2 | 14.5 | 0.00 | 0.00 | 0.00 | 21 | 1006.0 |
| 20260503180016 | 20 | 315 | 4.8 | 9.7 | 0.00 | 0.00 | 0.00 | 20 | 1006.1 |
| 20260503175516 | 20 | 338 | 3.2 | 8.0 | 0.00 | 0.00 | 0.00 | 22 | 1006.1 |
| 20260503175058 | 20 | 0 | 4.8 | 14.5 | 0.00 | 0.00 | 0.00 | 22 | 1006.0 |
| 20260503174516 | 20 | 315 | 4.8 | 11.3 | 0.00 | 0.00 | 0.00 | 22 | 1006.1 |
| 20260503174016 | 20 | 315 | 3.2 | 8.0 | 0.00 | 0.00 | 0.00 | 26 | 1006.2 |
| 20260503173537 | 20 | 338 | 3.2 | 6.4 | 0.00 | 0.00 | 0.00 | 29 | 1006.1 |
| 20260503173017 | 20 | 0 | 3.2 | 9.7 | 0.00 | 0.00 | 0.00 | 28 | 1006.0 |
| 20260503172516 | 20 | 338 | 3.2 | 8.0 | 0.00 | 0.00 | 0.00 | 27 | 1006.1 |
| 20260503172016 | 20 | 338 | 3.2 | 11.3 | 0.00 | 0.00 | 0.00 | 26 | 1006.2 |
| 20260503171517 | 20 | 338 | 3.2 | 14.5 | 0.00 | 0.00 | 0.00 | 29 | 1006.1 |
| 20260503171017 | 20 | 315 | 3.2 | 6.4 | 0.00 | 0.00 | 0.00 | 29 | 1006.1 |
| 20260503170517 | 20 | 338 | 1.6 | 8.0 | 0.00 | 0.00 | 0.00 | 28 | 1006.2 |
| 20260503150516 | 16 | 0 | 1.6 | 8.0 | 0.00 | 0.00 | 0.00 | 39 | 1005.9 |
| 20260503131016 | 12 | 338 | 1.6 | 4.8 | 0.00 | 0.00 | 0.00 | 48 | 1005.0 |
| 20260503130515 | 12 | 338 | 1.6 | 3.2 | 0.00 | 0.00 | 0.00 | 49 | 1005.0 |
| 20260503110516 | 10 | 0.0 | 0.0 | 0.00 | 0.00 | 0.00 | 48 | 1003.7 | |
| 20260503110138 | 11 | 0.0 | 3.2 | 0.00 | 0.00 | 0.00 | 47 | 1003.7 |